Wind_Speed
15 16 18 18 19 21 20 20 20 19 19 18 16 15 12 7 6 1 4 5 7 11 13 10 10 6 6 5 4 3 2 2 1 2 8 15 13 12 8 4 1 7 9 4 3
14 17 18 19 20 21 21 20 19 19 18 16 15 13 9 8 4 6 3 4 9 14 11 8 4 3 4 4 3 2 1 2 1 3 5 9 13 10 8 7 9 10 14 3 11
16 17 18 19 20 21 21 20 19 19 17 15 13 11 8 4 4 4 5 6 11 13 8 4 3 5 3 3 3 3 2 2 4 5 1 4 15 20 14 6 15 24 4 5 6
17 19 19 20 21 22 21 19 19 18 16 14 12 8 5 3 2 2 5 8 11 10 6 6 4 4 3 3 3 3 2 3 7 11 5 5 8 21 23 12 15 14 10 11 11
18 19 21 21 21 21 21 19 19 18 15 13 10 6 2 2 3 2 6 11 11 8 7 5 7 3 1 2 2 3 2 2 8 19 22 23 19 24 24 18 21 24 21 20 19
18 20 21 22 22 22 20 18 19 18 13 9 7 3 2 2 3 3 9 9 8 6 4 6 3 3 2 1 2 3 5 4 10 11 13 27 23 10 18 16 22 26 25 24 26
17 20 21 22 22 21 19 18 20 11 8 4 4 2 3 3 4 3 7 6 4 2 3 2 3 5 4 2 1 2 8 11 7 1 5 8 22 15 12 15 22 24 23 27 27
18 19 21 23 22 21 18 19 13 7 5 2 2 2 1 4 3 7 4 3 1 1 1 1 2 6 1 1 3 3 5 4 7 2 7 3 7 10 11 15 20 21 21 27 28
19 20 21 23 22 17 18 18 6 3 4 2 1 1 2 2 4 6 6 4 1 1 1 2 2 1 1 2 5 3 6 8 5 12 1 3 10 7 11 13 20 19 18 23 24
19 21 20 22 20 16 18 11 5 6 6 2 2 2 3 4 2 3 5 5 3 2 2 0 2 1 1 2 3 2 6 6 6 8 18 18 14 10 12 15 18 18 17 20 24
20 21 21 21 16 15 19 5 4 2 5 2 4 3 2 2 3 4 5 5 2 1 1 2 2 2 1 2 3 5 10 15 9 4 11 13 13 9 11 14 16 17 18 18 19
19 22 20 19 10 11 13 11 12 8 8 5 9 8 5 3 2 5 7 4 2 2 2 1 4 1 2 6 10 13 17 8 6 8 9 13 11 9 8 8 13 11 12 12 12
19 22 21 19 8 10 9 12 14 10 4 5 3 4 3 4 2 4 8 4 2 2 1 3 3 1 3 5 7 9 6 9 5 8 10 8 8 5 6 8 6 3 9 9 9
17 21 21 21 5 12 5 9 14 5 3 1 3 3 5 3 2 3 7 2 2 1 3 2 2 3 3 1 3 6 4 11 14 8 4 2 4 3 5 8 6 5 8 6 5
16 20 21 19 16 10 5 10 7 1 2 2 3 4 7 3 1 2 5 2 2 1 3 2 3 5 3 3 1 2 5 11 11 7 4 3 3 5 1 7 5 4 6 7 8
16 18 21 20 17 7 8 8 2 1 3 3 4 4 4 1 1 3 2 2 2 3 3 2 2 1 0 3 5 10 9 11 3 2 3 3 3 4 1 1 2 2 3 7 9
17 16 20 19 16 11 7 1 0 3 2 3 4 4 3 2 1 2 4 4 1 3 3 2 3 3 1 4 7 4 3 2 3 3 2 1 4 3 1 3 6 6 5 7 9
18 17 19 12 7 3 2 1 0 2 1 1 4 6 4 4 3 3 3 4 6 2 3 2 5 6 7 2 2 5 2 1 1 2 2 1 2 3 4 6 3 2 4 5 9
18 15 9 3 3 3 1 2 3 4 2 2 5 4 1 2 2 3 5 2 5 3 2 3 3 0 7 3 2 4 2 2 4 1 3 0 1 2 5 6 6 5 6 9 11
18 15 3 2 3 3 1 3 3 3 3 1 3 2 5 2 3 2 3 2 2 6 3 2 4 3 2 2 14 3 5 0 1 2 3 3 3 3 8 6 4 6 8 9 9
15 8 2 1 5 2 2 4 4 7 5 4 3 4 3 4 3 3 2 2 3 2 5 2 1 2 2 6 4 3 2 5 2 2 3 4 1 5 7 5 5 7 7 8 10
7 3 3 2 2 1 3 3 5 5 1 2 2 3 3 4 4 3 3 3 7 1 3 2 2 3 4 2 1 7 4 2 3 1 1 2 2 4 4 6 7 7 8 10 12
5 6 2 2 2 1 4 3 4 3 2 2 2 1 2 4 5 3 3 3 6 4 2 2 3 4 5 4 3 5 5 2 2 1 2 4 3 3 3 3 4 6 9 11 11
4 2 1 2 1 2 4 3 4 5 4 1 3 3 4 4 5 5 5 5 5 6 7 5 3 3 3 4 2 5 9 4 2 2 2 3 2 3 1 2 3 6 9 9 12
3 2 1 0 1 2 1 2 3 3 2 3 3 3 5 5 6 5 4 3 6 4 5 3 4 6 10 11 13 11 12 13 8 3 4 4 1 1 2 5 6 8 11 13 16
3 1 2 3 3 2 3 2 2 3 4 2 6 4 3 5 3 7 7 2 2 5 3 3 5 6 6 8 13 16 10 7 7 5 6 2 1 2 5 8 12 14 11 15 14
7 4 2 1 1 2 3 3 3 5 4 4 7 8 11 5 13 15 16 13 6 3 3 2 6 3 4 3 1 4 7 7 2 2 3 5 5 6 8 12 15 13 13 15 10
Wind_Direction
339 337 336 341 342 334 335 335 333 333 333 332 335 340 339 350 335 34 95 128 138 132 138 143 143 143 159 177 173 159 248 300 348 335 348 351 8 17 333 297 307 60 33 16 214
339 338 338 341 341 334 335 334 330 327 331 328 335 339 345 1 55 73 91 155 138 138 139 146 141 160 143 151 164 195 306 297 297 282 330 55 35 340 350 348 63 40 24 109 176
340 339 338 339 341 334 333 332 327 323 328 326 336 335 355 11 100 50 66 145 145 138 132 143 161 146 128 169 169 156 263 7 2 325 339 92 59 34 5 22 332 305 298 148 146
340 339 336 338 337 332 331 330 322 321 325 323 331 328 6 77 103 46 79 143 142 128 118 93 117 121 136 172 165 243 295 251 350 9 88 76 82 51 44 28 27 64 104 88 60
337 336 334 337 335 333 331 328 318 319 318 314 317 316 57 114 87 68 116 133 127 112 105 116 76 128 168 184 192 203 298 4 63 91 91 83 68 63 47 58 70 78 75 71 61
336 335 335 338 335 333 329 326 319 319 314 307 293 295 101 120 107 120 133 126 124 118 99 79 66 50 109 299 283 160 23 56 91 116 95 71 53 67 43 69 71 72 68 63 61
336 335 335 336 333 332 331 324 321 328 335 305 277 228 180 119 145 130 146 135 125 107 72 45 37 33 323 206 172 159 120 116 34 335 157 336 41 43 47 77 76 73 72 68 61
336 336 335 339 336 336 329 327 323 342 336 345 266 122 171 151 169 170 168 172 123 358 318 152 48 345 186 274 96 182 157 163 35 355 24 129 77 34 50 83 77 73 70 71 64
337 338 337 338 339 334 334 333 332 338 357 335 170 61 117 66 141 179 188 195 307 63 21 261 299 25 245 235 155 55 114 99 104 16 220 112 125 51 42 70 70 71 75 78 76
335 339 339 342 341 338 345 337 312 309 317 341 240 141 135 125 135 190 190 209 234 283 129 146 79 346 52 352 63 69 120 78 85 47 97 99 104 92 73 70 70 69 64 68 77
335 339 339 346 347 345 359 1 347 343 310 242 253 263 161 36 186 182 187 191 211 67 105 6 176 118 314 104 84 107 118 114 118 138 69 94 99 83 82 80 71 60 58 56 54
334 336 341 346 353 357 1 55 27 321 319 276 260 249 250 295 180 183 188 181 150 116 138 168 89 281 114 132 106 126 123 112 99 95 106 121 102 86 83 88 87 88 87 83 76
332 334 340 351 343 354 357 19 355 333 255 290 228 238 179 170 214 175 171 167 122 107 144 130 79 176 147 141 133 161 169 174 150 118 94 128 117 123 73 104 117 170 88 79 79
332 334 340 348 347 344 338 341 334 316 300 239 209 182 189 185 257 194 186 163 117 74 166 65 347 105 76 124 174 171 127 161 145 170 157 282 159 128 111 126 97 100 123 103 107
331 331 332 338 329 333 323 323 326 225 114 195 136 138 153 184 174 119 160 169 144 72 236 58 58 39 57 7 160 86 74 149 136 101 152 61 271 111 189 154 101 142 131 115 89
323 326 324 327 330 323 321 322 183 17 172 144 109 135 148 311 45 131 162 112 103 102 38 35 338 60 133 82 79 137 92 93 108 138 169 33 295 138 176 338 281 317 101 83 67
314 320 319 317 313 304 315 270 116 241 269 139 129 143 152 163 86 62 70 57 65 149 51 39 49 351 9 138 119 179 160 166 171 206 47 345 227 29 287 313 287 323 27 35 31
311 320 317 312 323 313 307 126 291 268 218 15 116 115 174 154 45 59 104 83 52 26 106 112 153 5 353 41 88 47 2 33 267 269 95 154 234 76 342 336 282 95 79 44 32
312 324 319 316 317 345 272 116 231 228 34 16 112 125 172 145 127 93 50 67 32 338 92 133 90 251 39 60 326 137 78 54 103 45 232 32 195 207 27 30 64 66 50 31 25
320 328 306 300 319 328 197 234 258 251 352 259 144 168 173 152 111 91 49 354 30 15 289 116 127 20 55 182 55 43 123 224 67 283 297 186 256 272 345 356 34 39 48 49 34
321 323 337 329 331 303 249 242 288 283 234 204 182 125 127 131 97 84 40 48 10 25 66 96 335 92 269 32 23 99 93 67 85 331 302 302 138 352 325 2 66 72 53 23 9
307 278 311 248 252 99 226 195 317 282 306 267 130 110 132 118 86 101 113 351 338 322 61 41 82 80 95 59 9 61 51 37 299 211 74 318 94 6 61 62 56 42 14 2 357
283 273 266 216 252 257 274 320 261 292 315 0 124 78 73 122 108 108 110 47 38 61 77 149 39 130 148 154 86 48 22 58 104 284 112 302 74 109 91 72 27 5 0 353 355
293 288 265 200 184 272 25 298 296 277 257 280 104 113 111 68 34 134 122 53 49 79 89 96 69 31 162 70 56 59 16 9 355 360 109 34 128 166 210 294 340 356 354 358 360
256 272 310 203 247 276 325 297 290 313 332 7 76 84 125 109 104 104 108 120 57 53 51 67 84 90 80 88 87 80 55 49 67 30 18 97 77 202 261 294 313 334 351 357 355
244 269 284 275 282 257 168 235 270 334 337 355 109 80 89 134 178 156 140 113 111 67 66 21 125 122 66 102 95 75 53 54 53 55 88 82 45 9 310 311 326 339 349 351 346
223 254 289 292 257 202 209 261 296 335 59 40 120 102 66 58 101 97 93 83 85 101 103 70 145 151 131 188 299 68 26 43 48 40 2 4 18 349 345 341 338 343 350 341 337
Height
1546 1545 1541 1537 1534 1532 1529 1526 1523 1520 1518 1516 1514 1511 1508 1507 1507 1507 1508 1510 1509 1510 1512 1513 1514 1515 1516 1517 1518 1519 1519 1518 1515 1516 1510 1508 1503 1502 1502 1500 1500 1505 1505 1505 1504
1545 1543 1540 1536 1533 1530 1527 1524 1521 1519 1516 1515 1512 1509 1507 1506 1507 1507 1509 1509 1509 1510 1512 1513 1513 1514 1516 1516 1518 1518 1520 1514 1513 1512 1510 1513 1510 1508 1504 1499 1503 1504 1507 1505 1503
1543 1541 1539 1535 1530 1528 1525 1521 1519 1517 1514 1513 1510 1508 1506 1505 1508 1508 1508 1509 1509 1511 1512 1513 1513 1514 1515 1516 1517 1517 1514 1515 1513 1512 1514 1514 1515 1515 1509 1504 1508 1506 1507 1507 1508
1542 1539 1537 1533 1529 1526 1523 1519 1517 1514 1512 1511 1509 1507 1505 1506 1510 1509 1508 1509 1510 1512 1513 1513 1512 1513 1514 1514 1516 1516 1515 1514 1514 1514 1513 1515 1519 1521 1520 1521 1513 1506 1512 1513 1517
1540 1538 1535 1532 1528 1523 1520 1516 1514 1512 1510 1509 1508 1506 1505 1507 1508 1508 1508 1509 1511 1512 1512 1512 1511 1512 1512 1514 1515 1515 1513 1515 1517 1518 1518 1518 1522 1524 1523 1523 1519 1516 1517 1517 1518
1539 1537 1533 1528 1523 1520 1517 1514 1512 1509 1507 1506 1506 1505 1505 1507 1507 1508 1509 1510 1512 1512 1512 1511 1511 1511 1513 1513 1514 1515 1516 1515 1519 1519 1519 1517 1524 1523 1530 1528 1524 1520 1521 1523 1521
1539 1536 1533 1528 1523 1520 1515 1511 1510 1506 1505 1505 1505 1504 1505 1507 1507 1509 1510 1511 1511 1511 1511 1510 1510 1512 1512 1513 1514 1515 1517 1517 1520 1520 1517 1517 1526 1533 1534 1531 1527 1524 1525 1524 1524
1538 1534 1531 1524 1520 1515 1513 1510 1507 1505 1504 1504 1504 1503 1504 1505 1506 1508 1510 1510 1510 1510 1510 1509 1509 1510 1511 1512 1514 1514 1517 1516 1521 1519 1519 1516 1542 1537 1536 1534 1531 1530 1528 1526 1526
1536 1533 1528 1523 1519 1516 1512 1508 1505 1504 1504 1503 1504 1504 1504 1505 1506 1508 1509 1509 1509 1509 1508 1508 1508 1508 1509 1508 1509 1512 1516 1517 1520 1521 1519 1516 1538 1540 1540 1537 1534 1535 1535 1531 1530
1535 1531 1528 1524 1518 1514 1510 1505 1504 1503 1504 1503 1504 1506 1504 1505 1506 1507 1508 1508 1508 1508 1509 1509 1508 1507 1508 1503 1516 1515 1518 1524 1524 1529 1521 1527 1537 1540 1541 1539 1538 1539 1540 1539 1533
1533 1528 1526 1520 1517 1514 1509 1504 1506 1505 1503 1503 1505 1502 1502 1504 1504 1506 1507 1507 1507 1508 1508 1509 1507 1508 1507 1509 1510 1513 1515 1523 1528 1528 1530 1537 1539 1544 1546 1544 1543 1543 1545 1546 1547
1531 1528 1524 1521 1517 1515 1512 1509 1513 1516 1506 1501 1501 1501 1502 1503 1504 1505 1506 1507 1506 1507 1510 1510 1509 1507 1508 1511 1512 1514 1517 1526 1528 1529 1529 1537 1544 1545 1546 1548 1548 1548 1550 1550 1551
1531 1527 1522 1519 1516 1515 1513 1512 1513 1512 1512 1501 1499 1500 1502 1503 1503 1503 1505 1505 1505 1507 1508 1506 1507 1506 1506 1510 1511 1516 1515 1523 1520 1530 1533 1534 1543 1546 1547 1548 1550 1549 1552 1553 1553
1530 1526 1522 1518 1519 1515 1514 1514 1512 1513 1511 1501 1499 1499 1501 1502 1503 1502 1503 1505 1505 1507 1507 1506 1506 1506 1507 1509 1509 1514 1511 1514 1521 1524 1532 1536 1538 1544 1546 1547 1550 1551 1552 1553 1554
1528 1525 1523 1522 1520 1517 1517 1514 1512 1513 1519 1500 1498 1498 1500 1503 1503 1502 1502 1503 1504 1505 1506 1510 1506 1506 1510 1511 1508 1515 1514 1515 1522 1525 1529 1535 1535 1541 1541 1542 1546 1549 1552 1552 1551
1527 1525 1522 1520 1517 1515 1514 1514 1515 1516 1520 1499 1495 1498 1501 1502 1501 1501 1502 1503 1504 1504 1506 1507 1507 1507 1508 1510 1510 1513 1517 1524 1527 1528 1538 1543 1541 1538 1539 1542 1542 1545 1547 1549 1547
1526 1525 1521 1518 1516 1514 1514 1513 1517 1516 1497 1499 1496 1497 1501 1503 1502 1501 1504 1506 1508 1513 1514 1509 1509 1508 1508 1508 1511 1513 1517 1531 1538 1537 1541 1544 1540 1539 1540 1540 1540 1542 1543 1544 1544
1523 1521 1518 1515 1514 1513 1513 1512 1523 1503 1497 1492 1494 1498 1503 1501 1504 1504 1507 1509 1509 1510 1514 1516 1525 1512 1510 1510 1512 1517 1519 1527 1549 1544 1538 1541 1544 1540 1540 1541 1541 1543 1545 1545 1545
1521 1519 1515 1515 1513 1512 1512 1518 1508 1502 1493 1495 1495 1502 1505 1503 1503 1506 1512 1513 1513 1512 1513 1518 1522 1513 1513 1511 1513 1519 1522 1528 1539 1548 1540 1546 1543 1540 1540 1542 1543 1544 1545 1545 1545
1519 1516 1515 1514 1513 1512 1512 1513 1504 1496 1493 1495 1499 1500 1508 1507 1506 1507 1513 1515 1514 1513 1511 1517 1524 1516 1513 1514 1516 1516 1525 1528 1528 1547 1548 1547 1548 1540 1544 1544 1545 1546 1547 1548 1548
1519 1515 1514 1512 1512 1511 1509 1507 1501 1495 1496 1496 1496 1500 1503 1505 1506 1512 1519 1517 1515 1513 1512 1515 1517 1521 1515 1522 1525 1521 1524 1534 1536 1541 1541 1545 1543 1551 1550 1550 1550 1551 1550 1550 1549
1519 1517 1513 1513 1516 1513 1512 1506 1502 1496 1494 1493 1493 1495 1499 1503 1509 1513 1517 1518 1515 1514 1516 1523 1523 1527 1528 1527 1527 1526 1532 1533 1533 1544 1548 1543 1547 1557 1556 1555 1554 1553 1552 1552 1551
1519 1514 1512 1511 1512 1510 1507 1501 1501 1496 1494 1492 1493 1493 1498 1504 1512 1513 1515 1518 1514 1515 1518 1522 1535 1534 1532 1530 1528 1533 1537 1540 1542 1541 1545 1543 1549 1559 1559 1558 1557 1556 1555 1554 1552
1518 1513 1510 1510 1510 1510 1504 1503 1501 1496 1494 1493 1493 1494 1499 1506 1507 1514 1516 1517 1517 1518 1520 1522 1537 1536 1534 1539 1538 1541 1542 1540 1538 1536 1546 1549 1555 1559 1559 1558 1557 1557 1556 1555 1553
1517 1514 1514 1510 1509 1510 1509 1508 1503 1498 1493 1492 1493 1493 1496 1508 1509 1515 1516 1518 1519 1521 1523 1525 1538 1539 1541 1541 1542 1548 1547 1544 1546 1552 1547 1555 1556 1557 1558 1558 1558 1557 1556 1554 1552
1517 1515 1514 1512 1511 1510 1508 1504 1501 1496 1497 1492 1492 1498 1498 1502 1503 1512 1514 1517 1518 1523 1526 1531 1542 1540 1547 1545 1544 1549 1551 1550 1553 1554 1556 1556 1556 1559 1560 1559 1558 1557 1556 1554 1551
1514 1514 1515 1511 1510 1509 1505 1502 1498 1499 1498 1496 1495 1497 1502 1507 1507 1510 1513 1518 1521 1522 1529 1533 1537 1540 1551 1549 1548 1551 1557 1556 1557 1557 1556 1555 1559 1560 1559 1559 1558 1557 1555 1552 1550